FW2664 Weather Reports


Display with metric or nautical units.
time (UTC)temp
F
wind
direction
speed
MPH
gust
MPH
rain 1hr
in
rain 24hr
in
rain mn
in
humidity
%
barometer
mb
20260505173350 72 69 0.0 15.0 0.00 0.00 0.00 54 1009.7
20260505172847 72 223 2.0 4.0 0.00 0.00 0.00 54 1009.9
20260505172345 72 117 2.0 12.0 0.00 0.00 0.00 55 1009.9
20260505171844 72 95 1.0 7.0 0.00 0.00 0.00 55 1009.9
20260505171342 71 182 3.0 5.0 0.00 0.00 0.00 54 1010.1
20260505170838 71 125 3.0 5.0 0.00 0.00 0.00 55 1010.3
20260505170335 71 170 2.0 7.0 0.00 0.00 0.00 56 1010.6
20260505165830 71 134 5.0 5.0 0.00 0.00 0.00 55 1010.7
20260505165326 71 131 2.0 5.0 0.00 0.00 0.00 54 1010.9
20260505164822 72 142 9.0 9.0 0.00 0.00 0.00 54 1011.0
20260505164319 72 227 2.0 3.0 0.00 0.00 0.00 55 1011.0
20260505163817 72 150 2.0 6.0 0.00 0.00 0.00 53 1011.2
20260505163316 73 83 2.0 8.0 0.00 0.00 0.00 53 1011.2
20260505162814 72 83 2.0 2.0 0.00 0.00 0.00 55 1011.4
20260505162309 72 110 5.0 5.0 0.00 0.00 0.00 56 1011.4
20260505161807 72 106 4.0 5.0 0.00 0.00 0.00 54 1011.4
20260505161304 72 161 0.0 6.0 0.00 0.00 0.00 57 1011.4
20260505160801 72 297 2.0 5.0 0.00 0.00 0.00 55 1011.6
20260505160259 72 56 2.0 4.0 0.00 0.00 0.00 54 1011.6
20260505153239 73 199 3.0 4.0 0.00 0.00 0.00 53 1011.6
20260505152736 73 195 1.0 2.0 0.00 0.00 0.00 55 1011.4
20260505152232 72 137 2.0 6.0 0.00 0.00 0.00 55 1011.5
20260505151731 72 72 1.0 7.0 0.00 0.00 0.00 56 1011.5
20260505151229 72 96 4.0 4.0 0.00 0.00 0.00 55 1011.4
20260505150726 72 0 4.0 5.0 0.00 0.00 0.00 53 1011.2
20260505150224 71 92 0.0 5.0 0.00 0.00 0.00 57 1011.3
20260505140154 68 112 4.0 6.0 0.00 0.00 0.00 62 1011.2
20260505130117 64 164 2.0 5.0 0.00 0.00 0.00 66 1010.8
20260505124607 63 88 2.0 4.0 0.00 0.00 0.00 68 1010.7
20260505124103 62 101 2.0 4.0 0.00 0.00 0.00 69 1010.6
20260505123559 62 117 4.0 4.0 0.00 0.00 0.00 69 1010.7
20260505123056 62 95 2.0 4.0 0.00 0.00 0.00 70 1010.8
20260505122553 62 112 2.0 4.0 0.00 0.00 0.00 70 1010.9
20260505122050 61 110 3.0 9.0 0.00 0.00 0.00 71 1011.0
20260505121546 61 141 2.0 2.0 0.00 0.00 0.00 72 1011.0
20260505121043 61 87 2.0 2.0 0.00 0.00 0.00 74 1010.9
20260505120540 60 97 1.0 4.0 0.00 0.00 0.00 74 1010.8
20260505120035 60 74 2.0 2.0 0.00 0.00 0.00 75 1010.8
20260505115530 59 71 0.0 3.0 0.00 0.00 0.00 75 1010.3
20260505115028 59 76 2.0 3.0 0.00 0.00 0.00 77 1010.5
20260505114525 58 122 0.0 3.0 0.00 0.00 0.00 79 1010.5
20260505114021 58 54 2.0 2.0 0.00 0.00 0.00 82 1010.0
20260505113518 57 53 3.0 3.0 0.00 0.00 0.00 81 1010.0
20260505113014 57 78 2.0 3.0 0.00 0.00 0.00 82 1010.1
20260505112510 56 72 2.0 2.0 0.00 0.00 0.00 83 1010.3
20260505112009 56 53 2.0 3.0 0.00 0.00 0.00 83 1010.2
20260505111507 56 85 3.0 3.0 0.00 0.00 0.00 83 1010.0
20260505111004 56 79 2.0 2.0 0.00 0.00 0.00 83 1010.2
20260505110500 56 73 3.0 4.0 0.00 0.00 0.00 83 1010.0
20260505101933 56 77 2.0 3.0 0.00 0.00 0.00 83 1009.6
20260505101432 56 65 2.0 3.0 0.00 0.00 0.00 82 1009.4
20260505100928 56 77 3.0 3.0 0.00 0.00 0.00 82 1009.6
20260505100425 56 78 2.0 3.0 0.00 0.00 0.00 82 1009.4
20260505095921 56 81 2.0 3.0 0.00 0.00 0.00 81 1009.4
20260505095418 56 75 2.0 3.0 0.00 0.00 0.00 81 1009.4
20260505094914 56 70 3.0 3.0 0.00 0.00 0.00 81 1009.5
20260505094412 56 80 2.0 3.0 0.00 0.00 0.00 80 1009.6
20260505093907 56 68 3.0 3.0 0.00 0.00 0.00 80 1009.5
20260505093404 56 77 2.0 4.0 0.00 0.00 0.00 80 1009.5
20260505092902 56 88 3.0 4.0 0.00 0.00 0.00 80 1009.3
20260505092400 57 78 2.0 3.0 0.00 0.00 0.00 79 1009.4
20260505091856 57 79 2.0 4.0 0.00 0.00 0.00 79 1009.3
20260505091354 57 73 3.0 4.0 0.00 0.00 0.00 78 1009.3
20260505090852 57 80 3.0 4.0 0.00 0.00 0.00 77 1009.6
20260505090350 57 71 3.0 4.0 0.00 0.00 0.00 76 1009.8
20260505085847 57 66 3.0 4.0 0.00 0.00 0.00 75 1009.7
20260505085345 58 74 3.0 4.0 0.00 0.00 0.00 75 1009.6
20260505084843 58 76 3.0 3.0 0.00 0.00 0.00 74 1009.7
20260505084341 59 78 2.0 3.0 0.00 0.00 0.00 73 1009.6
20260505083838 59 72 2.0 3.0 0.00 0.00 0.00 72 1009.4
20260505083335 59 68 3.0 3.0 0.00 0.00 0.00 71 1009.4
20260505082832 60 64 3.0 4.0 0.00 0.00 0.00 70 1009.5
20260505082328 60 65 3.0 3.0 0.00 0.00 0.00 68 1009.3
20260505081825 61 78 3.0 3.0 0.00 0.00 0.00 67 1009.1
20260505081321 62 81 2.0 3.0 0.00 0.00 0.00 66 1009.1
20260505080818 62 96 2.0 3.0 0.00 0.00 0.00 64 1009.2
20260505080314 62 59 2.0 3.0 0.00 0.00 0.00 64 1009.0
20260505075809 62 91 3.0 4.0 0.00 0.00 0.00 64 1009.1
20260505075307 62 282 1.0 3.0 0.00 0.00 0.00 65 1009.1
20260505074804 62 69 2.0 3.0 0.00 0.00 0.00 66 1009.3
20260505074301 62 86 1.0 1.0 0.00 0.00 0.00 65 1009.1
20260505073758 63 84 2.0 2.0 0.00 0.00 0.00 64 1009.1
20260505073256 63 121 1.0 2.0 0.00 0.00 0.00 63 1009.3
20260505072753 63 81 1.0 2.0 0.00 0.00 0.00 63 1009.1
20260505072249 64 80 1.0 3.0 0.00 0.00 0.00 61 1009.2
20260505071745 64 78 1.0 2.0 0.00 0.00 0.00 60 1009.2
20260505071242 64 98 2.0 3.0 0.00 0.00 0.00 60 1009.1
20260505070739 64 180 0.0 5.0 0.00 0.00 0.00 59 1009.0
20260505070235 64 95 1.0 3.0 0.00 0.00 0.00 60 1009.1
20260505065731 64 78 1.0 3.0 0.00 0.00 0.00 60 1009.2
20260505065228 64 84 1.0 3.0 0.00 0.00 0.00 61 1009.4
20260505064725 64 91 3.0 3.0 0.00 0.00 0.00 61 1009.4
20260505064223 64 109 1.0 3.0 0.00 0.00 0.00 61 1009.4
20260505063720 64 38 0.0 2.0 0.00 0.00 0.00 61 1009.5
20260505063216 64 73 0.0 2.0 0.00 0.00 0.00 60 1009.3
20260505062713 64 36 2.0 2.0 0.00 0.00 0.00 59 1009.5
20260505062211 64 75 2.0 2.0 0.00 0.00 0.00 58 1009.5
20260505061707 64 86 1.0 2.0 0.00 0.00 0.00 58 1009.3
20260505061206 65 76 0.0 4.0 0.00 0.00 0.00 58 1009.7
20260505060702 65 113 3.0 3.0 0.00 0.00 0.00 58 1009.7
20260505060159 65 100 3.0 4.0 0.00 0.00 0.00 57 1009.8
20260505055654 65 78 0.0 5.0 0.00 0.00 0.00 57 1009.9
20260505055151 65 97 0.0 4.0 0.00 0.00 0.00 57 1009.8
20260505054649 65 89 1.0 3.0 0.00 0.00 0.00 57 1009.9
20260505054147 65 109 3.0 4.0 0.00 0.00 0.00 57 1010.0
20260505053644 65 93 1.0 2.0 0.00 0.00 0.00 57 1009.8
20260505053140 65 72 1.0 3.0 0.00 0.00 0.00 57 1009.9
20260505052637 65 103 2.0 4.0 0.00 0.00 0.00 57 1009.8
20260505052135 65 100 2.0 4.0 0.00 0.00 0.00 57 1009.7
20260505051631 65 93 1.0 3.0 0.00 0.00 0.00 57 1009.8
20260505051130 66 81 2.0 3.0 0.00 0.00 0.00 56 1009.8
20260505050627 66 98 1.0 2.0 0.00 0.00 0.00 55 1009.8
20260505050125 66 137 3.0 3.0 0.00 0.00 0.00 56 1009.9
20260505041555 67 89 1.0 3.0 0.00 0.00 0.00 54 1009.5
20260505041052 67 85 0.0 2.0 0.00 0.00 0.00 53 1009.4
20260505040549 68 76 0.0 5.0 0.00 0.00 0.00 53 1009.3
20260505040047 68 60 0.0 3.0 0.00 0.00 0.00 52 1009.4
20260505035542 68 55 1.0 2.0 0.00 0.00 0.00 51 1009.4
20260505035039 69 107 1.0 2.0 0.00 0.00 0.00 51 1009.2
20260505034536 69 106 1.0 2.0 0.00 0.00 0.00 49 1009.4
20260505034033 69 110 2.0 2.0 0.00 0.00 0.00 49 1009.2
20260505033530 69 67 2.0 5.0 0.00 0.00 0.00 49 1009.3
20260505033028 69 155 0.0 2.0 0.00 0.00 0.00 49 1009.3
20260505032525 69 181 1.0 4.0 0.00 0.00 0.00 49 1009.3
20260505032022 70 48 0.0 3.0 0.00 0.00 0.00 48 1009.2
20260505031519 70 129 5.0 8.0 0.00 0.00 0.00 48 1009.2
20260505031015 70 127 0.0 6.0 0.00 0.00 0.00 49 1009.0
20260505030512 70 104 1.0 5.0 0.00 0.00 0.00 49 1009.1
20260505030008 70 106 2.0 4.0 0.00 0.00 0.00 49 1009.1
20260505025504 70 198 0.0 5.0 0.00 0.00 0.00 49 1009.0
20260505025004 70 94 2.0 2.0 0.00 0.00 0.00 49 1009.1
20260505024500 70 86 1.0 2.0 0.00 0.00 0.00 49 1009.2
20260505023957 70 107 2.0 4.0 0.00 0.00 0.00 49 1009.0
20260505023454 71 68 0.0 2.0 0.00 0.00 0.00 49 1009.2
20260505022951 71 74 2.0 2.0 0.00 0.00 0.00 48 1009.1
20260505022449 71 151 2.0 4.0 0.00 0.00 0.00 47 1009.1
20260505021946 71 165 3.0 3.0 0.00 0.00 0.00 47 1008.9
20260505021442 71 38 1.0 4.0 0.00 0.00 0.00 48 1009.0
20260505020938 70 125 2.0 7.0 0.00 0.00 0.00 47 1008.9
20260505020433 71 53 2.0 3.0 0.00 0.00 0.00 46 1008.9
20260505015931 71 87 1.0 2.0 0.00 0.00 0.00 45 1008.7
20260505015428 71 98 1.0 2.0 0.00 0.00 0.00 45 1008.7
20260505014925 71 114 3.0 3.0 0.00 0.00 0.00 44 1008.8
20260505014422 72 84 1.0 2.0 0.00 0.00 0.00 44 1008.7
20260505013919 72 84 2.0 3.0 0.00 0.00 0.00 43 1008.7
20260505013416 73 107 2.0 3.0 0.00 0.00 0.00 42 1008.8
20260505012914 73 89 0.0 3.0 0.00 0.00 0.00 42 1008.8
20260505012411 73 168 2.0 4.0 0.00 0.00 0.00 42 1008.8
20260505011907 73 174 1.0 2.0 0.00 0.00 0.00 41 1008.8
20260505011404 74 111 1.0 2.0 0.00 0.00 0.00 41 1008.8
20260505010901 74 129 0.0 5.0 0.00 0.00 0.00 41 1008.4
20260505010356 74 53 0.0 3.0 0.00 0.00 0.00 41 1008.9
20260505005853 74 19 3.0 5.0 0.00 0.00 0.00 40 1008.7
20260505005349 75 99 2.0 4.0 0.00 0.00 0.00 40 1008.6
20260505004847 75 50 0.0 2.0 0.00 0.00 0.00 40 1008.6
20260505004343 75 122 6.0 6.0 0.00 0.00 0.00 39 1008.8
20260505003841 75 108 6.0 6.0 0.00 0.00 0.00 39 1008.8
20260505003338 76 105 0.0 4.0 0.00 0.00 0.00 39 1008.6
20260505002834 76 116 3.0 5.0 0.00 0.00 0.00 38 1008.5
20260505002331 76 149 0.0 6.0 0.00 0.00 0.00 40 1008.7
20260505001829 76 107 1.0 5.0 0.00 0.00 0.00 41 1008.6
20260505001326 76 96 4.0 4.0 0.00 0.00 0.00 40 1008.6
20260505000823 76 150 1.0 3.0 0.00 0.00 0.00 42 1008.4
20260505000321 77 135 0.0 2.0 0.00 0.00 0.00 41 1008.6
20260504235817 77 201 0.0 2.0 0.00 0.00 0.00 40 1008.6
20260504235314 77 211 2.0 5.0 0.00 0.00 0.00 38 1008.6
20260504234811 77 96 4.0 4.0 0.00 0.00 0.00 38 1008.8
20260504234309 77 44 1.0 3.0 0.00 0.00 0.00 38 1008.7
20260504233805 78 209 1.0 2.0 0.00 0.00 0.00 38 1008.9
20260504233300 79 255 1.0 3.0 0.00 0.00 0.00 37 1008.8
20260504232758 80 213 3.0 5.0 0.00 0.00 0.00 36 1008.8
20260504232255 80 110 2.0 3.0 0.00 0.00 0.00 36 1008.8
20260504231752 80 305 0.0 3.0 0.00 0.00 0.00 35 1008.9
20260504231248 80 170 0.0 5.0 0.00 0.00 0.00 34 1008.9
20260504230744 80 236 0.0 10.0 0.00 0.00 0.00 34 1008.7
20260504230242 80 171 2.0 7.0 0.00 0.00 0.00 33 1008.8
20260504225741 81 89 4.0 9.0 0.00 0.00 0.00 33 1008.8
20260504225237 81 202 2.0 3.0 0.00 0.00 0.00 36 1008.8
20260504224734 80 195 2.0 4.0 0.00 0.00 0.00 35 1008.7
20260504224231 81 211 1.0 4.0 0.00 0.00 0.00 34 1008.9
20260504223727 80 113 0.0 6.0 0.00 0.00 0.00 34 1008.9
20260504223223 81 121 1.0 7.0 0.00 0.00 0.00 34 1009.0
20260504222720 82 179 2.0 10.0 0.00 0.00 0.00 34 1009.1
20260504222217 82 342 2.0 9.0 0.00 0.00 0.00 32 1009.0
20260504221714 82 13 2.0 6.0 0.00 0.00 0.00 33 1008.9
20260504221211 82 206 1.0 4.0 0.00 0.00 0.00 34 1008.8
20260504220708 82 160 2.0 5.0 0.00 0.00 0.00 34 1009.1
20260504220206 82 323 3.0 5.0 0.00 0.00 0.00 34 1008.8
20260504215702 82 122 0.0 9.0 0.00 0.00 0.00 34 1008.8
20260504215159 82 140 0.0 10.0 0.00 0.00 0.00 34 1008.7
20260504214655 82 210 3.0 5.0 0.00 0.00 0.00 35 1008.7
20260504214151 82 345 1.0 9.0 0.00 0.00 0.00 35 1008.7
20260504213648 82 349 2.0 9.0 0.00 0.00 0.00 35 1008.7
20260504213145 82 8 2.0 5.0 0.00 0.00 0.00 36 1008.6
20260504212641 81 280 3.0 13.0 0.00 0.00 0.00 34 1008.5
20260504212138 82 202 5.0 10.0 0.00 0.00 0.00 35 1008.6
20260504211636 83 212 3.0 4.0 0.00 0.00 0.00 34 1008.8
20260504211132 83 182 1.0 5.0 0.00 0.00 0.00 37 1008.4
20260504210630 83 206 3.0 6.0 0.00 0.00 0.00 36 1008.6
20260504210126 82 28 1.0 6.0 0.00 0.00 0.00 36 1008.6
20260504205623 82 265 3.0 6.0 0.00 0.00 0.00 36 1008.8
20260504205121 82 176 2.0 6.0 0.00 0.00 0.00 34 1008.8
20260504204619 83 175 1.0 6.0 0.00 0.00 0.00 35 1008.8
20260504204118 84 128 5.0 6.0 0.00 0.00 0.00 34 1008.9
20260504203616 84 196 1.0 7.0 0.00 0.00 0.00 34 1008.7
20260504203113 83 32 1.0 6.0 0.00 0.00 0.00 34 1008.9
20260504202608 83 293 2.0 9.0 0.00 0.00 0.00 35 1008.8
20260504202105 83 103 4.0 10.0 0.00 0.00 0.00 34 1008.9
20260504201602 83 227 0.0 5.0 0.00 0.00 0.00 34 1009.2
20260504201100 83 294 5.0 8.0 0.00 0.00 0.00 33 1009.2
20260504200556 83 294 1.0 4.0 0.00 0.00 0.00 35 1009.0
20260504200053 84 201 1.0 6.0 0.00 0.00 0.00 34 1009.2
20260504195549 84 60 2.0 5.0 0.00 0.00 0.00 35 1009.3
20260504195046 83 237 1.0 3.0 0.00 0.00 0.00 37 1009.5
20260504194542 83 218 2.0 6.0 0.00 0.00 0.00 36 1009.6
20260504194038 83 173 4.0 6.0 0.00 0.00 0.00 38 1009.7
20260504193535 83 216 2.0 6.0 0.00 0.00 0.00 36 1009.6
20260504193034 83 208 2.0 5.0 0.00 0.00 0.00 36 1009.7
20260504192531 83 237 2.0 4.0 0.00 0.00 0.00 38 1009.7
20260504192029 83 105 3.0 6.0 0.00 0.00 0.00 37 1009.9
20260504191527 83 242 3.0 5.0 0.00 0.00 0.00 37 1010.1
20260504191023 83 22 4.0 5.0 0.00 0.00 0.00 37 1010.1
20260504190519 82 145 2.0 3.0 0.00 0.00 0.00 41 1010.0
20260504190015 83 232 1.0 8.0 0.00 0.00 0.00 37 1010.5
20260504185512 83 170 1.0 4.0 0.00 0.00 0.00 38 1010.2
20260504185009 82 230 4.0 5.0 0.00 0.00 0.00 38 1010.3
20260504184509 82 221 1.0 4.0 0.00 0.00 0.00 39 1010.2
20260504184005 81 142 1.0 4.0 0.00 0.00 0.00 40 1010.6
20260504183503 82 122 3.0 4.0 0.00 0.00 0.00 39 1010.6
20260504183001 82 215 2.0 4.0 0.00 0.00 0.00 41 1010.3
20260504182457 82 298 2.0 5.0 0.00 0.00 0.00 39 1010.6
20260504181955 82 225 2.0 8.0 0.00 0.00 0.00 41 1010.6
20260504181451 82 233 2.0 5.0 0.00 0.00 0.00 39 1010.7
20260504180950 81 83 2.0 4.0 0.00 0.00 0.00 41 1010.7
20260504180449 81 274 3.0 3.0 0.00 0.00 0.00 41 1010.8
20260504175947 81 220 4.0 6.0 0.00 0.00 0.00 40 1011.0
20260504175443 81 204 4.0 7.0 0.00 0.00 0.00 39 1010.9
20260504174941 82 253 3.0 4.0 0.00 0.00 0.00 39 1010.8
20260504174438 81 2 1.0 3.0 0.00 0.00 0.00 43 1010.9
20260504173936 80 207 0.0 6.0 0.00 0.00 0.00 42 1011.1